Find Starlink 4374

NORAD ID: 53652 Int'l Des: 2022-105 Owner: SPXS Country: US Constellation: starlink operational
LEOCIRCULARRETROGRADESSO

現在のビュー

3D地球を読み込み中...

About Starlink 4374

Starlink 4374 (NORAD 53652) is a starlink constellation satellite (v1.5) launched Aug 31, 2022 by SPXS of US. It operates in LEO, CIRCULAR, RETROGRADE, SSO orbit with a mass of 300.00 kg.

次回通過

Passes for default location (London). Set your location on the main map for personalized predictions.

高度履歴

Loading altitude history...

軌道要素

1 53652U 22105E 26265.58336806 .00078693 00000-0 41223-2 0 9998
2 53652 97.2847 139.3643 0001956 85.0105 138.4475 15.15460122 5687
Epoch: Sep 22, 2026 • Age: 10 hours

現在のステータス

高度 541.5 km
遠地点 / 近地点 N/A
速度 7.59 km/s
衛星直下点 -53.65°S, 45.37°W
打ち上げ日 Aug 31, 2022
運用期間 4 years
タイプ internet

技術仕様

分類 Payload
質量 300.00 kg
乾燥質量 290.00 kg
長さ 0.20 m
スパン 9.00 m
形状 ? Box + pan
製造者 SPXS
バスタイプ Starlink
フェーズステータス In Orbit
所有者/国 SPXS/US

Most Searched